QPF
0.00 0.00 0.00 0.00 0.00 0.00 0.00 0.00 0.00 0.00 0.00 0.00 0.00 0.00 0.00 0.00 0.00 0.05 0.02 0.02 0.00 0.00 0.00 0.00 0.01 0.00 0.00 0.00 0.00 0.00 0.00 0.00 0.00 0.00 0.00 0.00 0.00 0.00 0.00 0.00 0.00 0.00 0.00 0.00 0.00 0.00 0.00 0.00 0.00
0.00 0.00 0.00 0.00 0.00 0.00 0.00 0.00 0.00 0.00 0.01 0.01 0.01 0.00 0.02 0.02 0.01 0.02 0.04 0.04 0.00 0.00 0.00 0.00 0.00 0.00 0.00 0.00 0.00 0.00 0.00 0.00 0.00 0.00 0.00 0.00 0.00 0.00 0.00 0.00 0.00 0.00 0.00 0.00 0.00 0.00 0.00 0.00 0.00
0.00 0.00 0.00 0.00 0.00 0.00 0.00 0.00 0.00 0.00 0.01 0.02 0.05 0.03 0.03 0.04 0.02 0.05 0.07 0.01 0.00 0.00 0.00 0.00 0.00 0.00 0.00 0.00 0.00 0.00 0.00 0.00 0.00 0.00 0.00 0.00 0.00 0.00 0.00 0.00 0.00 0.00 0.00 0.00 0.00 0.00 0.00 0.00 0.00
0.00 0.00 0.00 0.00 0.00 0.00 0.00 0.00 0.00 0.00 0.00 0.00 0.04 0.07 0.07 0.05 0.04 0.08 0.03 0.00 0.00 0.00 0.00 0.00 0.00 0.01 0.00 0.00 0.00 0.00 0.00 0.00 0.00 0.00 0.00 0.00 0.00 0.00 0.00 0.00 0.00 0.00 0.00 0.00 0.00 0.00 0.00 0.00 0.00
0.00 0.00 0.00 0.00 0.00 0.00 0.00 0.00 0.00 0.00 0.00 0.00 0.00 0.02 0.04 0.02 0.00 0.01 0.04 0.00 0.00 0.00 0.01 0.00 0.01 0.01 0.00 0.00 0.00 0.00 0.00 0.00 0.00 0.00 0.00 0.00 0.00 0.00 0.00 0.00 0.00 0.00 0.00 0.00 0.00 0.00 0.00 0.00 0.00
0.00 0.00 0.00 0.00 0.00 0.00 0.00 0.00 0.01 0.01 0.00 0.00 0.00 0.00 0.00 0.01 0.01 0.01 0.01 0.00 0.00 0.00 0.00 0.00 0.00 0.00 0.00 0.00 0.00 0.00 0.00 0.00 0.00 0.00 0.00 0.00 0.00 0.00 0.00 0.00 0.00 0.00 0.00 0.00 0.00 0.00 0.00 0.00 0.00
0.00 0.00 0.00 0.00 0.00 0.00 0.00 0.01 0.02 0.01 0.00 0.00 0.00 0.00 0.00 0.02 0.05 0.07 0.02 0.00 0.00 0.00 0.00 0.00 0.00 0.00 0.00 0.00 0.00 0.00 0.00 0.00 0.00 0.00 0.00 0.00 0.00 0.00 0.00 0.00 0.00 0.00 0.00 0.00 0.00 0.00 0.00 0.00 0.00
0.00 0.00 0.00 0.00 0.00 0.00 0.00 0.01 0.00 0.02 0.01 0.00 0.00 0.01 0.01 0.03 0.09 0.02 0.02 0.00 0.00 0.00 0.00 0.00 0.00 0.00 0.00 0.00 0.00 0.00 0.00 0.00 0.00 0.00 0.00 0.00 0.00 0.00 0.00 0.00 0.00 0.00 0.00 0.00 0.00 0.00 0.00 0.00 0.00
0.00 0.00 0.00 0.00 0.00 0.01 0.03 0.04 0.00 0.00 0.00 0.01 0.01 0.00 0.00 0.04 0.02 0.00 0.00 0.00 0.00 0.00 0.00 0.00 0.00 0.00 0.00 0.00 0.00 0.00 0.00 0.00 0.00 0.00 0.00 0.00 0.00 0.00 0.00 0.00 0.00 0.00 0.00 0.00 0.00 0.00 0.00 0.00 0.00
0.00 0.00 0.00 0.00 0.00 0.03 0.02 0.01 0.00 0.00 0.00 0.01 0.00 0.00 0.00 0.01 0.01 0.00 0.00 0.00 0.00 0.00 0.00 0.00 0.00 0.00 0.00 0.00 0.00 0.00 0.00 0.00 0.00 0.00 0.00 0.00 0.00 0.00 0.00 0.00 0.00 0.00 0.00 0.00 0.00 0.00 0.00 0.00 0.00
0.00 0.00 0.00 0.00 0.00 0.00 0.00 0.00 0.00 0.00 0.00 0.00 0.00 0.00 0.00 0.00 0.00 0.00 0.00 0.00 0.00 0.00 0.00 0.00 0.00 0.00 0.00 0.00 0.00 0.00 0.00 0.00 0.00 0.00 0.00 0.00 0.00 0.00 0.01 0.01 0.00 0.00 0.00 0.00 0.00 0.00 0.00 0.00 0.00
0.00 0.00 0.00 0.00 0.00 0.00 0.00 0.00 0.00 0.00 0.00 0.00 0.00 0.00 0.00 0.00 0.00 0.00 0.00 0.00 0.00 0.00 0.00 0.00 0.00 0.00 0.00 0.00 0.00 0.00 0.00 0.00 0.00 0.00 0.00 0.00 0.05 0.06 0.04 0.02 0.01 0.00 0.00 0.00 0.00 0.00 0.00 0.00 0.00
0.00 0.00 0.00 0.00 0.00 0.00 0.00 0.00 0.00 0.00 0.00 0.00 0.00 0.00 0.00 0.00 0.00 0.00 0.00 0.00 0.00 0.00 0.00 0.00 0.00 0.00 0.00 0.00 0.00 0.00 0.00 0.00 0.00 0.00 0.00 0.00 0.02 0.04 0.02 0.01 0.00 0.00 0.00 0.00 0.00 0.00 0.00 0.00 0.00
0.00 0.00 0.00 0.00 0.00 0.00 0.00 0.00 0.00 0.00 0.00 0.00 0.00 0.00 0.00 0.00 0.00 0.00 0.00 0.00 0.00 0.00 0.00 0.00 0.00 0.00 0.00 0.00 0.00 0.00 0.00 0.00 0.00 0.00 0.00 0.02 0.06 0.07 0.04 0.01 0.00 0.00 0.00 0.00 0.00 0.00 0.00 0.00 0.00
0.00 0.00 0.00 0.00 0.00 0.00 0.00 0.00 0.00 0.00 0.00 0.00 0.00 0.00 0.00 0.00 0.00 0.00 0.00 0.00 0.00 0.00 0.00 0.00 0.01 0.00 0.00 0.00 0.00 0.00 0.00 0.00 0.00 0.01 0.00 0.01 0.06 0.08 0.06 0.02 0.00 0.00 0.00 0.00 0.00 0.00 0.00 0.00 0.00
0.00 0.00 0.00 0.00 0.00 0.00 0.00 0.00 0.00 0.00 0.00 0.00 0.00 0.00 0.00 0.00 0.00 0.00 0.00 0.00 0.00 0.00 0.00 0.01 0.05 0.09 0.04 0.02 0.01 0.00 0.00 0.02 0.01 0.00 0.00 0.03 0.04 0.03 0.01 0.00 0.01 0.00 0.00 0.00 0.00 0.00 0.00 0.00 0.00
0.00 0.00 0.00 0.00 0.00 0.00 0.00 0.00 0.00 0.00 0.00 0.00 0.00 0.00 0.00 0.00 0.00 0.00 0.00 0.00 0.00 0.00 0.00 0.00 0.02 0.13 0.20 0.07 0.05 0.10 0.21 0.10 0.01 0.00 0.01 0.01 0.00 0.00 0.00 0.00 0.00 0.00 0.00 0.00 0.00 0.00 0.00 0.00 0.00
0.00 0.00 0.00 0.00 0.00 0.00 0.00 0.00 0.00 0.00 0.00 0.00 0.00 0.00 0.00 0.00 0.00 0.00 0.00 0.00 0.00 0.00 0.00 0.01 0.01 0.07 0.16 0.44 0.64 0.27 0.04 0.00 0.00 0.00 0.00 0.00 0.00 0.00 0.00 0.00 0.00 0.00 0.00 0.00 0.00 0.00 0.00 0.00 0.00
0.00 0.00 0.00 0.00 0.00 0.00 0.00 0.00 0.00 0.00 0.00 0.00 0.00 0.00 0.00 0.00 0.00 0.00 0.00 0.00 0.00 0.00 0.00 0.01 0.02 0.08 0.19 0.22 0.05 0.00 0.00 0.00 0.00 0.00 0.00 0.00 0.00 0.00 0.00 0.00 0.00 0.00 0.00 0.00 0.00 0.00 0.00 0.00 0.00
0.00 0.00 0.00 0.00 0.00 0.00 0.00 0.00 0.00 0.00 0.00 0.00 0.00 0.00 0.00 0.00 0.00 0.01 0.01 0.00 0.00 0.00 0.00 0.00 0.01 0.01 0.00 0.00 0.00 0.00 0.00 0.00 0.00 0.00 0.00 0.00 0.00 0.00 0.00 0.00 0.00 0.00 0.00 0.00 0.00 0.00 0.00 0.00 0.00
0.00 0.00 0.00 0.00 0.00 0.00 0.00 0.00 0.00 0.00 0.00 0.00 0.00 0.00 0.00 0.00 0.00 0.00 0.00 0.00 0.00 0.00 0.00 0.00 0.00 0.00 0.00 0.00 0.00 0.00 0.00 0.00 0.00 0.00 0.00 0.00 0.00 0.00 0.00 0.00 0.00 0.00 0.00 0.00 0.00 0.00 0.00 0.00 0.00
0.00 0.00 0.00 0.00 0.00 0.00 0.00 0.00 0.00 0.00 0.00 0.00 0.00 0.00 0.00 0.00 0.00 0.00 0.00 0.00 0.00 0.00 0.00 0.00 0.00 0.00 0.00 0.00 0.00 0.00 0.00 0.00 0.00 0.00 0.00 0.00 0.00 0.00 0.00 0.00 0.00 0.00 0.00 0.00 0.00 0.00 0.00 0.00 0.00
0.00 0.00 0.00 0.00 0.00 0.00 0.00 0.00 0.00 0.00 0.00 0.00 0.00 0.00 0.00 0.00 0.00 0.00 0.00 0.00 0.00 0.00 0.00 0.00 0.00 0.00 0.00 0.00 0.00 0.00 0.00 0.00 0.00 0.00 0.00 0.00 0.00 0.00 0.00 0.00 0.00 0.00 0.00 0.00 0.00 0.00 0.00 0.00 0.00
0.00 0.00 0.00 0.00 0.00 0.00 0.00 0.00 0.00 0.00 0.00 0.00 0.00 0.00 0.00 0.00 0.00 0.00 0.00 0.00 0.00 0.00 0.00 0.00 0.00 0.00 0.00 0.00 0.00 0.00 0.00 0.00 0.00 0.00 0.00 0.00 0.00 0.00 0.00 0.00 0.00 0.00 0.00 0.00 0.00 0.00 0.00 0.00 0.00
0.00 0.00 0.00 0.00 0.00 0.00 0.00 0.00 0.00 0.00 0.00 0.00 0.00 0.00 0.00 0.00 0.00 0.00 0.00 0.00 0.00 0.00 0.00 0.00 0.00 0.00 0.00 0.00 0.00 0.00 0.00 0.00 0.00 0.00 0.00 0.00 0.00 0.00 0.00 0.00 0.00 0.00 0.00 0.00 0.00 0.00 0.00 0.01 0.01
0.00 0.00 0.00 0.00 0.00 0.00 0.00 0.00 0.00 0.00 0.00 0.00 0.00 0.00 0.00 0.00 0.00 0.00 0.00 0.00 0.00 0.00 0.00 0.00 0.00 0.00 0.00 0.00 0.00 0.00 0.00 0.00 0.00 0.00 0.00 0.00 0.00 0.00 0.00 0.00 0.00 0.00 0.00 0.00 0.00 0.01 0.01 0.02 0.03
0.00 0.00 0.00 0.00 0.00 0.00 0.00 0.00 0.00 0.00 0.00 0.00 0.00 0.00 0.00 0.00 0.00 0.00 0.00 0.00 0.00 0.00 0.00 0.00 0.00 0.00 0.00 0.00 0.00 0.00 0.00 0.00 0.00 0.00 0.00 0.00 0.00 0.00 0.00 0.00 0.00 0.00 0.00 0.00 0.01 0.02 0.02 0.03 0.03
0.00 0.00 0.00 0.00 0.00 0.00 0.00 0.00 0.00 0.00 0.00 0.00 0.00 0.00 0.00 0.00 0.00 0.00 0.00 0.00 0.00 0.00 0.00 0.00 0.00 0.00 0.00 0.00 0.00 0.00 0.00 0.00 0.00 0.00 0.00 0.00 0.00 0.00 0.00 0.00 0.00 0.00 0.00 0.01 0.02 0.02 0.02 0.02 0.02
0.00 0.00 0.00 0.00 0.00 0.00 0.00 0.00 0.00 0.00 0.00 0.00 0.00 0.00 0.00 0.00 0.00 0.00 0.00 0.00 0.00 0.00 0.00 0.00 0.00 0.00 0.00 0.00 0.00 0.00 0.00 0.00 0.00 0.00 0.00 0.00 0.00 0.00 0.00 0.00 0.00 0.00 0.00 0.02 0.04 0.03 0.01 0.01 0.00
0.00 0.00 0.00 0.00 0.00 0.00 0.00 0.00 0.00 0.00 0.00 0.00 0.00 0.00 0.00 0.00 0.00 0.00 0.00 0.00 0.00 0.00 0.00 0.00 0.00 0.00 0.00 0.00 0.00 0.00 0.00 0.00 0.00 0.00 0.00 0.00 0.00 0.00 0.00 0.00 0.00 0.00 0.01 0.02 0.01 0.01 0.00 0.00 0.00
MSLP
1013.75 1013.34 1012.82 1011.93 1010.65 1008.86 1006.96 1007.22 1007.64 1008.74 1009.78 1010.57 1011.15 1011.12 1011.27 1011.45 1012.18 1014.33 1015.41 1015.33 1015.56 1016.32 1017.03 1017.92 1018.46 1018.67 1019.11 1019.41 1019.69 1019.94 1020.02 1020.05 1020.21 1020.47 1020.69 1020.82 1020.89 1020.94 1021.04 1021.15 1021.14 1021.10 1021.07 1021.06 1021.19 1021.10 1021.26 1021.35 1021.45
1012.99 1013.04 1012.25 1010.56 1009.29 1007.04 1006.08 1007.40 1007.93 1009.52 1010.62 1011.57 1012.17 1012.24 1012.56 1013.19 1014.16 1015.23 1015.33 1015.91 1016.34 1016.54 1016.92 1017.70 1018.64 1018.86 1019.39 1019.61 1019.97 1020.28 1020.37 1020.43 1020.59 1020.89 1021.00 1021.13 1021.11 1021.24 1021.27 1021.32 1021.24 1021.38 1021.50 1021.64 1021.60 1021.47 1021.57 1021.58 1021.61
1013.02 1012.68 1010.77 1009.25 1007.95 1006.77 1006.07 1007.49 1008.93 1010.45 1011.56 1012.32 1013.25 1013.64 1014.15 1014.37 1015.07 1015.35 1015.89 1016.40 1016.83 1016.78 1017.06 1018.00 1018.86 1019.21 1019.55 1019.80 1020.21 1020.47 1020.63 1020.77 1020.86 1021.07 1021.26 1021.40 1021.49 1021.64 1021.70 1021.68 1021.67 1021.75 1021.72 1021.83 1021.84 1021.70 1021.89 1021.91 1021.75
1012.24 1011.70 1010.77 1009.05 1007.33 1007.77 1007.55 1008.47 1009.59 1010.41 1011.41 1012.21 1013.80 1015.03 1015.45 1015.00 1015.68 1016.12 1016.83 1016.75 1016.67 1016.95 1017.42 1018.83 1019.27 1019.51 1019.84 1019.96 1020.33 1020.58 1020.85 1021.00 1021.16 1021.30 1021.47 1021.54 1021.85 1021.93 1021.87 1021.85 1022.00 1022.02 1022.19 1022.08 1022.04 1022.11 1022.04 1021.99 1021.91
1011.74 1010.55 1008.99 1008.11 1007.73 1008.24 1008.41 1009.27 1009.67 1010.34 1011.80 1012.69 1013.59 1014.67 1014.99 1016.14 1016.33 1016.62 1016.17 1016.99 1016.72 1016.90 1017.86 1018.81 1019.65 1019.89 1020.10 1020.28 1020.64 1020.97 1021.17 1021.29 1021.45 1021.60 1021.66 1021.90 1022.09 1022.12 1022.24 1022.27 1022.27 1022.26 1022.32 1022.53 1022.43 1022.44 1022.27 1022.15 1022.08
1010.40 1009.93 1008.41 1007.47 1007.69 1008.73 1008.85 1009.57 1009.88 1010.24 1011.40 1012.25 1013.72 1013.52 1014.73 1016.68 1016.51 1016.79 1017.03 1017.35 1017.13 1017.67 1018.15 1019.03 1019.97 1020.15 1020.44 1020.55 1020.89 1021.26 1021.52 1021.68 1021.73 1021.76 1021.85 1022.14 1022.23 1022.38 1022.53 1022.59 1022.65 1022.74 1022.66 1022.68 1022.59 1022.63 1022.50 1022.51 1022.26
1009.67 1009.01 1007.85 1007.90 1008.23 1008.82 1009.49 1010.06 1009.88 1010.92 1011.33 1011.90 1012.66 1013.42 1015.63 1016.71 1016.76 1017.16 1017.10 1017.19 1017.61 1017.86 1018.18 1018.89 1019.49 1020.20 1020.68 1020.76 1021.26 1021.58 1021.84 1022.01 1022.16 1022.19 1022.15 1022.35 1022.52 1022.74 1022.74 1022.92 1022.97 1023.16 1023.02 1022.97 1023.02 1022.93 1022.78 1022.59 1022.63
1009.73 1009.05 1008.29 1008.35 1008.24 1009.36 1010.15 1010.24 1010.71 1011.82 1012.46 1012.30 1012.36 1013.13 1015.18 1016.35 1017.08 1017.53 1017.63 1017.49 1017.73 1018.09 1018.39 1018.82 1019.35 1019.71 1020.15 1020.83 1021.53 1021.82 1022.07 1022.23 1022.24 1022.31 1022.56 1022.69 1022.82 1022.90 1022.98 1023.02 1023.22 1023.18 1023.18 1022.98 1022.99 1023.10 1023.02 1022.66 1022.72
1010.25 1008.88 1007.97 1008.12 1008.44 1010.12 1010.80 1010.99 1011.00 1011.80 1011.96 1012.00 1012.93 1013.18 1013.96 1016.53 1017.08 1017.19 1017.21 1017.44 1017.90 1018.44 1018.85 1019.20 1019.43 1019.92 1020.27 1020.71 1021.65 1022.21 1022.30 1022.55 1022.53 1022.59 1022.63 1022.70 1022.12 1022.25 1022.44 1023.03 1023.24 1023.21 1023.21 1023.09 1022.96 1022.87 1022.98 1022.60 1022.34
1009.42 1008.26 1007.71 1008.33 1008.99 1010.33 1011.01 1011.63 1011.39 1011.78 1011.77 1012.04 1012.80 1013.85 1015.18 1016.36 1016.33 1016.57 1016.96 1017.47 1018.08 1018.53 1018.92 1019.54 1020.08 1020.35 1020.72 1020.80 1021.41 1021.64 1021.93 1021.86 1021.76 1022.01 1022.24 1022.03 1022.44 1022.37 1022.42 1023.00 1023.40 1023.27 1023.13 1022.86 1023.02 1022.84 1022.61 1022.19 1021.43
1009.09 1008.20 1008.32 1008.76 1009.30 1009.63 1010.82 1011.67 1011.92 1011.43 1010.70 1010.95 1011.89 1013.81 1014.96 1015.82 1016.05 1016.41 1016.85 1017.27 1017.83 1018.37 1018.97 1019.76 1020.33 1020.70 1020.81 1021.06 1021.37 1021.33 1021.64 1022.03 1022.02 1022.31 1022.25 1022.32 1022.49 1022.41 1022.37 1022.48 1022.33 1022.51 1022.81 1021.96 1022.12 1022.03 1021.78 1022.11 1021.86
1009.05 1008.91 1008.59 1008.95 1009.61 1010.34 1010.66 1011.14 1011.33 1011.10 1010.89 1011.44 1011.98 1013.67 1014.64 1015.35 1015.70 1016.08 1016.46 1016.92 1017.60 1018.33 1019.08 1019.72 1020.38 1021.04 1021.33 1021.05 1021.19 1021.58 1021.52 1021.87 1021.82 1022.13 1022.44 1022.29 1022.45 1022.43 1022.51 1022.40 1022.44 1022.58 1022.41 1022.32 1022.17 1022.00 1022.32 1022.25 1022.23
1009.23 1009.34 1009.05 1009.09 1010.17 1010.25 1010.40 1010.82 1010.58 1010.91 1011.53 1011.79 1012.69 1014.11 1014.57 1015.07 1015.45 1015.96 1016.30 1016.91 1017.56 1018.27 1019.07 1019.72 1020.47 1021.02 1021.23 1021.34 1021.53 1021.70 1021.88 1021.91 1022.05 1022.08 1022.25 1022.17 1022.15 1022.43 1022.60 1022.65 1022.57 1022.66 1022.64 1022.51 1022.44 1022.34 1022.31 1022.29 1022.21
1009.10 1009.53 1009.38 1009.88 1010.11 1010.57 1010.58 1010.88 1010.81 1011.58 1012.15 1012.59 1013.49 1014.06 1014.52 1014.96 1015.39 1016.01 1016.54 1017.04 1017.68 1018.27 1019.12 1019.90 1020.43 1020.81 1021.09 1021.29 1021.64 1021.74 1022.09 1021.98 1022.30 1022.29 1022.57 1022.90 1022.98 1023.06 1023.14 1023.20 1023.00 1022.91 1023.00 1022.96 1022.88 1022.88 1022.50 1022.37 1022.42
1009.73 1009.71 1010.09 1010.01 1010.06 1010.26 1010.23 1010.72 1011.17 1012.04 1012.61 1013.12 1013.75 1014.29 1014.76 1015.13 1015.77 1016.17 1016.66 1017.03 1017.54 1018.20 1019.04 1020.02 1020.58 1020.95 1021.10 1021.48 1021.80 1022.39 1022.82 1023.00 1022.77 1022.93 1022.93 1023.13 1023.46 1023.30 1023.44 1023.53 1023.29 1023.64 1023.69 1023.51 1023.13 1022.98 1022.76 1022.55 1022.54
1009.35 1009.47 1009.32 1009.87 1010.00 1010.54 1010.24 1010.44 1012.20 1012.49 1012.79 1013.29 1013.97 1014.62 1015.09 1015.70 1016.06 1016.71 1017.24 1017.34 1017.52 1018.04 1019.08 1020.09 1020.67 1021.26 1021.97 1022.55 1022.61 1023.02 1023.70 1024.14 1023.87 1023.70 1023.61 1023.52 1024.11 1023.70 1023.69 1023.74 1024.31 1024.32 1023.87 1023.81 1023.55 1023.28 1023.07 1022.71 1022.61
1009.27 1008.72 1008.85 1009.76 1010.13 1010.15 1010.47 1010.83 1012.55 1013.24 1012.94 1013.58 1014.32 1014.85 1015.31 1016.17 1016.81 1017.31 1017.58 1017.64 1017.63 1018.02 1018.93 1020.25 1021.05 1021.91 1023.10 1023.60 1024.60 1023.70 1023.48 1024.03 1024.30 1024.24 1024.00 1024.01 1024.07 1023.78 1024.10 1024.14 1024.27 1024.22 1024.01 1023.91 1023.81 1023.68 1023.67 1023.38 1022.86
1008.04 1008.50 1009.04 1009.22 1010.18 1010.13 1010.55 1011.78 1012.98 1013.45 1013.64 1014.14 1014.63 1015.07 1015.58 1016.23 1017.01 1017.60 1017.72 1017.89 1017.92 1018.51 1019.37 1020.31 1021.14 1022.27 1022.73 1023.21 1023.21 1023.53 1024.17 1024.09 1023.88 1024.07 1023.67 1023.58 1023.88 1024.10 1023.96 1024.11 1024.28 1024.19 1024.10 1024.10 1024.16 1024.10 1024.02 1023.71 1023.09
1008.18 1008.30 1008.63 1009.25 1010.07 1010.04 1010.59 1011.63 1012.64 1013.54 1014.00 1014.48 1014.87 1015.26 1015.81 1016.49 1017.38 1017.76 1018.14 1018.27 1018.65 1019.32 1019.93 1020.60 1021.32 1021.95 1022.35 1022.79 1023.01 1023.85 1022.95 1023.24 1023.07 1023.14 1023.63 1023.87 1024.09 1024.18 1024.05 1023.96 1024.23 1024.34 1024.58 1024.70 1024.65 1024.31 1023.99 1023.58 1023.33
1008.69 1008.58 1008.86 1009.93 1010.53 1010.35 1011.06 1011.99 1013.19 1013.85 1014.24 1014.57 1014.92 1015.44 1016.01 1016.75 1017.39 1018.02 1018.26 1018.49 1018.80 1019.32 1019.77 1020.43 1020.98 1021.47 1021.57 1021.73 1021.82 1022.04 1022.24 1022.45 1022.75 1023.45 1024.03 1024.10 1024.35 1024.43 1024.45 1024.41 1024.43 1024.82 1024.54 1024.64 1024.79 1024.66 1024.23 1023.73 1023.42
1009.06 1008.73 1009.24 1009.23 1010.27 1010.63 1010.75 1011.45 1012.65 1014.01 1014.60 1015.13 1015.41 1015.61 1016.03 1016.50 1017.22 1017.74 1018.17 1018.50 1018.95 1019.41 1019.68 1020.00 1020.55 1020.93 1021.10 1021.21 1021.64 1022.20 1022.74 1023.02 1023.29 1023.64 1023.80 1024.41 1024.63 1024.74 1024.69 1024.75 1024.69 1024.79 1024.80 1024.65 1024.76 1024.64 1024.47 1023.91 1023.59
1009.04 1009.77 1009.60 1009.82 1009.76 1009.39 1010.70 1009.78 1011.24 1012.97 1014.03 1014.82 1015.53 1015.90 1016.19 1016.75 1017.19 1017.67 1018.14 1018.56 1018.91 1019.39 1019.82 1020.22 1020.60 1020.78 1021.20 1021.31 1021.56 1021.83 1021.92 1022.11 1023.15 1023.58 1023.92 1024.08 1024.62 1024.69 1024.78 1024.78 1024.80 1024.84 1024.83 1024.78 1024.63 1024.49 1024.67 1024.29 1023.72
1010.01 1010.19 1010.01 1010.09 1009.77 1009.86 1010.20 1010.30 1010.70 1012.36 1013.30 1014.35 1015.24 1015.75 1016.26 1016.78 1017.14 1017.61 1018.06 1018.53 1019.18 1019.98 1020.42 1020.86 1021.14 1021.56 1022.00 1022.10 1022.08 1022.28 1022.53 1023.00 1023.41 1023.75 1024.05 1024.30 1024.42 1024.63 1024.58 1024.58 1024.63 1024.66 1024.55 1024.51 1024.76 1024.77 1024.58 1024.35 1024.02
1010.68 1010.54 1010.45 1010.40 1010.23 1009.83 1009.74 1010.45 1009.44 1010.89 1012.03 1013.66 1014.88 1015.60 1016.08 1016.64 1017.16 1017.65 1018.17 1018.91 1019.65 1020.59 1021.07 1021.39 1021.58 1022.08 1022.48 1022.58 1022.75 1022.81 1023.09 1023.37 1023.53 1023.85 1023.84 1023.82 1023.96 1023.98 1024.18 1024.30 1024.36 1024.37 1024.40 1024.45 1024.51 1024.51 1024.40 1024.29 1024.14
1010.69 1010.27 1010.08 1010.38 1010.26 1009.92 1010.89 1010.76 1009.86 1011.41 1012.42 1013.01 1014.16 1015.01 1015.76 1016.50 1017.10 1017.59 1018.30 1018.96 1019.65 1020.43 1020.95 1021.27 1021.53 1022.09 1022.55 1022.84 1023.17 1023.53 1023.71 1023.87 1023.90 1023.94 1023.74 1023.90 1023.67 1023.67 1023.72 1023.92 1024.06 1024.00 1024.06 1024.35 1024.28 1024.09 1024.13 1024.06 1023.94
1010.48 1010.52 1010.51 1010.52 1010.69 1010.58 1011.41 1010.36 1010.42 1011.96 1012.68 1013.09 1013.87 1014.76 1015.59 1016.32 1016.98 1017.51 1018.22 1018.92 1019.57 1020.30 1020.76 1021.21 1021.60 1022.10 1022.62 1023.06 1023.42 1023.82 1023.99 1023.82 1023.87 1023.92 1024.01 1023.90 1023.88 1023.88 1023.92 1024.05 1023.99 1023.99 1024.03 1024.01 1023.92 1023.90 1023.73 1023.70 1023.69
1011.06 1011.06 1011.78 1011.76 1012.51 1011.83 1010.58 1010.76 1011.45 1012.24 1012.69 1013.32 1013.75 1014.54 1015.33 1016.07 1016.91 1017.56 1018.32 1018.94 1019.48 1020.17 1020.89 1021.35 1021.86 1022.41 1023.10 1023.66 1023.73 1023.96 1024.13 1024.10 1024.08 1024.11 1024.17 1024.06 1024.10 1024.02 1024.05 1024.08 1023.85 1023.63 1023.58 1023.53 1023.48 1023.37 1023.24 1023.18 1023.23
1011.25 1011.73 1011.99 1012.09 1012.04 1011.35 1010.55 1010.61 1010.26 1011.76 1012.33 1013.03 1013.55 1014.25 1015.12 1016.02 1016.96 1017.60 1018.43 1019.32 1019.89 1020.59 1021.34 1022.00 1022.39 1023.00 1023.48 1023.85 1024.14 1024.11 1024.12 1024.06 1024.09 1024.19 1024.17 1024.18 1024.12 1024.03 1023.89 1023.63 1023.34 1023.06 1023.03 1023.01 1022.99 1022.93 1022.76 1022.89 1022.91
1011.92 1011.69 1012.07 1012.07 1012.35 1011.69 1011.12 1010.13 1011.08 1011.39 1011.92 1012.57 1013.16 1014.13 1014.99 1016.14 1017.18 1018.11 1018.99 1019.79 1020.48 1021.12 1021.71 1022.25 1022.67 1023.13 1023.82 1024.25 1024.33 1024.08 1023.95 1024.01 1024.08 1024.10 1024.17 1024.17 1024.11 1023.81 1023.60 1023.30 1023.00 1022.75 1022.63 1022.69 1022.71 1022.75 1022.73 1022.96 1022.79
1011.57 1011.30 1011.68 1011.78 1012.27 1012.56 1012.10 1010.96 1011.66 1012.03 1012.26 1012.63 1013.11 1014.09 1015.21 1016.63 1017.64 1018.47 1019.35 1020.10 1020.68 1021.21 1021.92 1022.62 1022.99 1023.64 1024.10 1024.04 1023.97 1023.89 1023.91 1023.96 1023.93 1023.98 1024.02 1024.05 1023.97 1023.88 1023.62 1023.30 1023.07 1022.81 1022.69 1022.70 1022.93 1022.95 1023.12 1023.14 1023.04
Thickness
5708 5713 5720 5721 5709 5721 5729 5729 5742 5725 5718 5728 5729 5725 5725 5729 5718 5697 5710 5716 5715 5709 5702 5696 5692 5690 5684 5680 5677 5674 5674 5674 5673 5670 5668 5667 5665 5665 5664 5662 5662 5662 5661 5660 5658 5659 5657 5655 5653
5709 5710 5715 5717 5704 5713 5732 5733 5724 5717 5719 5718 5716 5717 5710 5699 5708 5701 5705 5706 5702 5702 5698 5693 5688 5685 5679 5676 5672 5669 5668 5669 5668 5665 5665 5664 5664 5662 5661 5660 5661 5657 5655 5652 5652 5653 5651 5650 5649
5704 5708 5707 5708 5712 5711 5725 5727 5715 5709 5710 5702 5692 5701 5694 5691 5697 5698 5700 5696 5693 5694 5693 5687 5682 5678 5675 5672 5668 5665 5664 5665 5665 5664 5663 5662 5660 5657 5656 5656 5655 5653 5652 5650 5648 5649 5645 5644 5645
5701 5703 5705 5697 5704 5708 5715 5715 5711 5706 5706 5706 5686 5672 5680 5694 5687 5687 5682 5685 5688 5684 5684 5677 5674 5672 5669 5668 5664 5662 5661 5661 5661 5660 5659 5659 5655 5654 5654 5653 5651 5649 5646 5646 5644 5641 5641 5640 5640
5701 5701 5694 5696 5699 5704 5713 5711 5711 5700 5691 5691 5691 5676 5678 5680 5684 5683 5688 5678 5680 5681 5678 5672 5667 5665 5663 5662 5659 5657 5656 5656 5656 5656 5656 5653 5651 5650 5649 5648 5646 5645 5643 5638 5637 5636 5637 5637 5636
5691 5698 5688 5691 5696 5698 5706 5707 5705 5702 5696 5690 5680 5687 5680 5672 5676 5677 5675 5671 5671 5670 5673 5668 5662 5661 5658 5658 5655 5652 5651 5652 5653 5654 5654 5650 5649 5646 5644 5642 5640 5638 5636 5634 5633 5631 5631 5630 5631
5689 5690 5690 5691 5688 5689 5693 5704 5700 5691 5694 5689 5693 5678 5669 5665 5670 5671 5668 5667 5663 5667 5670 5665 5661 5658 5655 5656 5651 5648 5647 5648 5647 5647 5647 5645 5643 5639 5638 5636 5633 5629 5628 5627 5624 5625 5625 5625 5624
5693 5690 5682 5685 5685 5675 5690 5696 5698 5675 5674 5693 5698 5678 5658 5667 5665 5660 5662 5666 5667 5666 5665 5662 5660 5658 5656 5652 5648 5647 5645 5644 5644 5643 5641 5639 5636 5635 5632 5630 5626 5624 5622 5623 5621 5619 5619 5621 5618
5691 5680 5678 5680 5685 5670 5684 5674 5691 5690 5682 5687 5683 5683 5684 5663 5662 5663 5665 5665 5663 5662 5660 5658 5657 5655 5654 5651 5645 5642 5641 5637 5638 5637 5637 5635 5635 5632 5630 5624 5621 5619 5618 5618 5617 5616 5613 5614 5614
5683 5683 5686 5693 5690 5672 5672 5669 5673 5676 5676 5677 5678 5678 5671 5663 5666 5663 5661 5658 5657 5656 5657 5654 5651 5651 5649 5649 5645 5642 5640 5639 5639 5637 5633 5632 5627 5625 5623 5618 5615 5614 5614 5615 5612 5611 5610 5610 5611
5685 5679 5688 5688 5688 5689 5671 5660 5673 5675 5681 5690 5684 5673 5671 5667 5666 5663 5662 5661 5658 5658 5656 5652 5650 5648 5648 5645 5642 5642 5638 5634 5633 5630 5629 5626 5621 5619 5618 5615 5614 5612 5610 5613 5610 5608 5607 5603 5602
5673 5683 5688 5686 5685 5676 5668 5673 5667 5677 5685 5692 5691 5680 5672 5667 5666 5666 5665 5664 5661 5658 5655 5652 5648 5642 5641 5642 5641 5636 5635 5631 5631 5627 5623 5621 5616 5614 5613 5610 5608 5606 5605 5603 5601 5600 5596 5594 5592
5673 5676 5683 5689 5676 5678 5684 5675 5679 5683 5688 5692 5686 5675 5672 5671 5670 5670 5670 5667 5664 5657 5653 5650 5644 5640 5639 5637 5634 5631 5628 5626 5623 5621 5617 5616 5614 5609 5605 5601 5600 5598 5596 5593 5591 5588 5585 5584 5583
5683 5677 5683 5676 5675 5674 5674 5675 5683 5679 5683 5681 5676 5674 5673 5671 5671 5667 5665 5663 5661 5658 5652 5647 5643 5639 5636 5633 5630 5626 5621 5620 5614 5613 5608 5604 5602 5600 5598 5592 5588 5586 5583 5581 5578 5575 5575 5573 5570
5672 5666 5668 5674 5678 5676 5687 5672 5673 5678 5678 5673 5672 5672 5671 5671 5669 5665 5664 5663 5662 5658 5652 5643 5638 5633 5631 5627 5622 5615 5610 5603 5603 5601 5600 5597 5592 5589 5585 5580 5580 5574 5569 5567 5566 5564 5563 5561 5559
5670 5671 5662 5674 5680 5676 5684 5668 5666 5677 5676 5672 5670 5667 5667 5665 5665 5661 5659 5659 5660 5656 5648 5640 5634 5628 5621 5614 5609 5602 5593 5590 5588 5592 5589 5588 5580 5581 5576 5571 5563 5559 5558 5554 5552 5552 5551 5551 5549
5666 5661 5668 5663 5678 5678 5679 5670 5664 5668 5677 5671 5666 5664 5664 5658 5655 5654 5654 5655 5656 5654 5647 5636 5630 5623 5610 5603 5592 5597 5598 5584 5582 5577 5578 5577 5575 5572 5565 5560 5553 5550 5547 5545 5541 5538 5537 5535 5538
5667 5665 5667 5666 5670 5678 5674 5662 5660 5666 5668 5664 5664 5664 5661 5658 5653 5651 5653 5652 5654 5650 5643 5634 5626 5616 5610 5605 5595 5590 5580 5577 5579 5573 5574 5570 5564 5559 5555 5550 5544 5540 5536 5533 5530 5526 5521 5520 5524
5681 5677 5672 5676 5675 5676 5673 5666 5663 5663 5663 5659 5660 5660 5658 5655 5652 5651 5648 5649 5646 5640 5634 5626 5619 5612 5607 5599 5595 5582 5587 5579 5575 5570 5563 5556 5549 5546 5542 5538 5531 5525 5520 5516 5512 5511 5509 5508 5507
5676 5675 5673 5669 5670 5674 5667 5659 5657 5658 5659 5662 5661 5658 5654 5650 5646 5642 5643 5643 5639 5633 5628 5622 5616 5610 5607 5601 5596 5589 5583 5577 5568 5559 5549 5542 5534 5529 5525 5521 5517 5510 5507 5503 5498 5496 5496 5495 5492
5671 5675 5669 5675 5669 5672 5672 5662 5658 5652 5654 5654 5656 5657 5654 5650 5643 5640 5638 5636 5632 5626 5622 5618 5611 5606 5602 5596 5587 5577 5568 5561 5554 5546 5539 5530 5525 5521 5517 5512 5508 5502 5497 5494 5488 5485 5480 5479 5475
5668 5671 5674 5670 5671 5668 5671 5671 5670 5659 5652 5651 5647 5648 5647 5643 5640 5637 5633 5629 5625 5620 5617 5611 5605 5600 5594 5587 5581 5574 5569 5562 5548 5539 5531 5525 5518 5513 5507 5502 5497 5492 5486 5482 5476 5470 5461 5457 5454
5661 5670 5671 5669 5670 5670 5667 5664 5672 5659 5650 5646 5643 5643 5641 5638 5636 5631 5628 5624 5619 5609 5604 5598 5593 5586 5578 5572 5569 5563 5554 5545 5537 5529 5521 5515 5509 5503 5498 5493 5487 5480 5474 5467 5457 5449 5442 5434 5428
5665 5665 5665 5666 5664 5650 5669 5659 5680 5667 5661 5648 5642 5640 5638 5635 5631 5627 5624 5617 5609 5599 5592 5586 5581 5573 5566 5561 5554 5549 5541 5533 5526 5519 5514 5509 5503 5496 5489 5481 5473 5465 5457 5449 5439 5429 5419 5411 5403
5663 5661 5645 5638 5641 5644 5649 5649 5670 5661 5656 5655 5645 5641 5637 5632 5627 5623 5616 5610 5602 5594 5587 5581 5575 5566 5559 5551 5544 5536 5529 5522 5516 5510 5506 5499 5494 5487 5479 5469 5460 5451 5441 5430 5422 5413 5402 5392 5382
5659 5659 5642 5623 5632 5644 5641 5647 5663 5657 5655 5655 5650 5643 5636 5630 5625 5619 5613 5605 5598 5590 5584 5577 5569 5559 5551 5542 5534 5525 5518 5514 5508 5501 5494 5487 5480 5472 5463 5454 5446 5437 5428 5418 5407 5395 5384 5371 5358
5649 5646 5649 5633 5620 5626 5655 5657 5657 5652 5649 5647 5646 5641 5634 5628 5621 5615 5608 5601 5594 5586 5576 5568 5560 5551 5540 5529 5523 5516 5509 5503 5496 5489 5481 5475 5467 5458 5450 5441 5434 5425 5413 5402 5390 5378 5366 5353 5339
5652 5652 5634 5635 5613 5623 5650 5648 5660 5647 5646 5644 5642 5638 5632 5626 5617 5611 5602 5592 5585 5576 5566 5556 5549 5538 5529 5519 5510 5504 5498 5491 5484 5476 5468 5461 5452 5444 5436 5428 5419 5409 5398 5386 5373 5361 5349 5333 5319
5635 5638 5636 5641 5631 5629 5629 5654 5659 5655 5653 5645 5644 5637 5631 5619 5610 5600 5591 5582 5574 5565 5555 5546 5537 5527 5515 5505 5497 5493 5487 5479 5472 5464 5455 5446 5438 5430 5422 5413 5405 5395 5383 5369 5355 5341 5328 5314 5303
5644 5645 5643 5631 5626 5622 5624 5646 5650 5648 5648 5647 5643 5635 5626 5612 5601 5592 5582 5572 5564 5556 5545 5532 5524 5512 5502 5496 5490 5484 5476 5468 5461 5452 5442 5433 5425 5415 5406 5397 5387 5376 5363 5349 5334 5320 5306 5295 5287